Flag for Azerbaijan Weather past 2 weeks in Ganja, Azerbaijan

Now
66 °F

Partly sunny.


Feels Like: 66 °F
Forecast: 57 / 69 °F
Wind: 5 mph from Northeast

Location: Gyanca Airport


UV Index: 0 (Low)

Visibility: N/A


Pressure: 29.92 "Hg

Humidity: 68%

Dew point: 55 °F

Location of GanjaLocation

Historic Weather in Ganja

°F

Ganja temperature yesterday

Maximum temperature yesterday: 81 °F (at 7:00 PM)
Minimum temperature yesterday: 55 °F (at 5:00 AM)
Average temperature yesterday: 67 °F

Past Weeks' High & Low Weather Summary

 TemperatureHumidityPressure
High84 °F (Apr 19, 5:30 PM)94% (Apr 12, 4:00 AM)30.48 "Hg (Apr 12, 4:00 AM)
Low39 °F (Apr 7, 1:00 AM)28% (Apr 19, 6:30 PM)29.68 "Hg (Apr 8, 6:30 PM)
Average60 °F64%30.02 "Hg
* Reported Apr 6 1:00 PM — Apr 21 1:00 PM, Ganja, Weather by CustomWeather, © 2014

Note: Actual official high and low records may vary slightly from our data, if they occured in-between our weather recording intervals... More about our weather records

Advertising

Historic Weather Conditions — Data for Previous 24 hours

 ConditionsComfort  
Time TempWeatherWind HumidityBarometerVisibility
1:00 PM
Apr 21
64 °FPartly sunny.3 mph68%29.95 "HgN/A
12:30 PM64 °FOvercast.3 mph68%29.95 "HgN/A
12:00 PM66 °FOvercast.3 mph64%29.95 "HgN/A
11:30 AM64 °FOvercast.6 mph73%29.95 "Hg4 mi
11:00 AM64 °FOvercast.1 mph73%29.95 "Hg4 mi
10:30 AM61 °FOvercast.5 mph94%29.92 "Hg4 mi
10:00 AM63 °FOvercast.3 mph83%29.92 "HgN/A
9:30 AM63 °FOvercast.5 mph83%29.92 "HgN/A
9:00 AM63 °FOvercast.5 mph83%29.89 "HgN/A
8:30 AM63 °FOvercast.6 mph83%29.89 "HgN/A
8:00 AM61 °FOvercast.No wind88%29.89 "HgN/A
7:30 AM61 °FLight rain. Overcast.7 mph88%29.86 "HgN/A
7:00 AM61 °FLight rain. Overcast.3 mph88%29.86 "HgN/A
6:30 AM61 °FLight rain. Overcast.7 mph83%29.86 "HgN/A
6:00 AM63 °FPassing clouds.5 mph77%29.86 "HgN/A
5:30 AM64 °FPassing clouds.5 mph68%29.86 "HgN/A
5:00 AM64 °FPassing clouds.7 mph68%29.86 "HgN/A
4:30 AM64 °FPassing clouds.9 mph64%29.83 "HgN/A
4:00 AM66 °FPassing clouds.7 mph56%29.83 "HgN/A
3:30 AM66 °FPassing clouds.5 mph56%29.83 "HgN/A
3:00 AM64 °FPassing clouds.5 mph56%29.83 "HgN/A
2:00 AM66 °FPassing clouds.5 mph52%29.83 "HgN/A
1:30 AM66 °FPassing clouds.5 mph56%29.83 "HgN/A
1:00 AM66 °FPassing clouds.6 mph52%29.83 "HgN/A
12:30 AM66 °FPassing clouds.5 mph52%29.86 "HgN/A
12:00 AM66 °FPassing clouds.5 mph52%29.86 "HgN/A
11:30 PM
Apr 20
70 °FPassing clouds.5 mph40%29.86 "HgN/A
11:00 PM70 °FPassing clouds.No wind40%29.86 "HgN/A
10:30 PM68 °FScattered clouds.2 mph49%29.86 "HgN/A
10:00 PM70 °FScattered clouds.6 mph46%29.83 "HgN/A
9:30 PM68 °FPartly sunny.5 mph53%29.83 "HgN/A
9:00 PM70 °FPartly sunny.6 mph50%29.83 "HgN/A
8:30 PM75 °FPartly sunny.5 mph39%29.83 "HgN/A
8:00 PM77 °FPartly sunny.2 mph34%29.83 "HgN/A
7:30 PM79 °FPartly sunny.5 mph30%29.83 "HgN/A
7:00 PM81 °FPartly sunny.2 mph28%29.83 "HgN/A
6:30 PM79 °FPartly sunny.2 mph32%29.86 "HgN/A
6:00 PM79 °FPartly sunny.No wind32%29.86 "HgN/A
5:30 PM77 °FPartly sunny.5 mph34%29.86 "HgN/A
5:00 PM77 °FPartly sunny.2 mph32%29.89 "HgN/A
4:30 PM75 °FPartly sunny.5 mph34%29.89 "HgN/A
4:00 PM75 °FPartly sunny.2 mph34%29.92 "HgN/A
3:30 PM73 °FPartly sunny.6 mph33%29.92 "HgN/A
3:00 PM75 °FPartly sunny.7 mph31%29.95 "HgN/A
2:30 PM73 °FPartly sunny.9 mph31%29.95 "HgN/A
2:00 PM72 °FPartly sunny.9 mph33%29.95 "HgN/A
Weather by CustomWeather, © 2014

See weather overview